[[{"header":{"parameterUnit":"m.s-1","parameterCategory":1,"la1":30.2991,"la2":30.254,"lo1":-89.0895,"lo2":-89.0444,"dy":0.0017,"dx":0.0017,"nx":28,"ny":28,"refTime":"2025-02-24T03:00:00:Z","depth":0,"parameterNumber":2,"parameterNumberName":"U-component_of_WINDS"},"data":[0,0,0,0,0,0,0,0,0,0,0,0,0,0,0,0,0,0,0,0,0,0,0,0,0,0,0,0,0,0,0,0,0,0,0,0,0,0,0,0,0,0,0,0,0,0,0,0,0,0,0,0,0,0,0,0,0,0,-0.6547,-0.6548,0,-0.6636,-0.6638,-0.6639,-0.6641,-0.664,-0.6639,-0.6638,-0.6733,-0.6736,-0.6739,0,0,0,0,0,0,0,0,0,0,0,0,0,-0.6381,-0.6384,-0.6547,-0.6548,-0.6549,-0.6636,-0.6638,-0.6639,-0.6641,-0.664,-0.6639,-0.6637,-0.6731,-0.6736,-0.674,0,0,0,0,0,0,0,0,0,0,0,0,0,-0.646,-0.6385,-0.6547,-0.6561,-0.6563,-0.6636,-0.6638,-0.6639,-0.6642,-0.664,-0.6638,-0.6637,-0.673,-0.6735,-0.674,-0.6806,0,0,-0.6757,-0.6759,0,0,0,0,0,0,0,0,-0.6455,-0.6466,-0.6558,-0.656,-0.6563,-0.6626,-0.6614,-0.6695,-0.6642,-0.6612,-0.6638,-0.6636,-0.6699,-0.6706,-0.6727,-0.6811,-0.6815,-0.6757,-0.676,-0.6763,-0.6764,0,0,0,0,0,0,0,-0.645,-0.6462,-0.6582,-0.6559,-0.6562,-0.6563,-0.6573,-0.6629,-0.6664,-0.6614,-0.6615,-0.6625,-0.67,-0.6722,-0.6729,-0.6816,-0.6757,-0.6762,-0.6765,-0.6767,-0.696,-0.6962,0,0,0,0,0,0,-0.6441,-0.6457,-0.658,-0.6585,-0.6504,-0.6568,-0.6578,-0.6607,-0.6663,-0.667,-0.6626,-0.6625,-0.6713,-0.6723,-0.6732,-0.6815,-0.6763,-0.6768,-0.6771,-0.6958,-0.696,-0.6962,0,0,0,0,0,0,-0.6438,-0.6452,-0.6576,-0.6521,-0.6537,-0.6572,-0.6605,-0.661,-0.6632,-0.6672,-0.6678,-0.6643,-0.6713,-0.6725,-0.6788,-0.6818,-0.677,-0.6775,-0.6956,-0.6959,-0.6961,-0.6979,0,0,0,0,0,0,-0.6433,-0.6451,-0.6476,-0.6522,-0.654,-0.6629,-0.6607,-0.6613,-0.6641,-0.664,-0.6689,-0.6696,-0.6712,-0.678,-0.6793,-0.6824,-0.6779,-0.6953,-0.6957,-0.696,-0.6976,-0.6982,-0.6987,0,0,0,0,0,-0.6427,-0.6478,-0.6477,-0.6492,-0.6572,-0.6631,-0.6642,-0.6659,-0.6643,-0.6669,-0.6695,-0.6694,-0.6812,-0.6786,-0.6801,-0.6835,-0.6951,-0.6956,-0.696,-0.6973,-0.6981,-0.6987,0,0,0,0,0,0,-0.6435,-0.6484,-0.6484,-0.6551,-0.6587,-0.6631,-0.6665,-0.6666,-0.6708,-0.6706,-0.6726,-0.6737,-0.68,-0.6823,-0.6794,-0.6902,-0.688,-0.6887,-0.6885,-0.6892,-0.6898,-0.6892,-0.6783,0,0,0,0,0,-0.6444,-0.6487,-0.6528,-0.6583,-0.6601,-0.663,-0.6656,-0.6666,-0.6705,-0.672,-0.675,-0.6788,-0.6834,-0.6864,-0.6908,-0.6978,-0.699,-0.7008,-0.7014,-0.7018,-0.7026,-0.7066,-0.7075,-0.6976,-0.6976,-0.6976,0,0,-0.6465,-0.6497,-0.6523,-0.6586,-0.6615,-0.666,-0.6643,-0.6691,-0.6725,-0.6728,-0.679,-0.6813,-0.6856,-0.6923,-0.6955,-0.6945,-0.7055,-0.7024,-0.7027,-0.7032,-0.7071,-0.708,-0.7089,-0.6979,-0.6979,-0.6978,0,0,-0.6526,-0.6553,-0.6603,-0.6632,-0.6676,-0.6694,-0.6706,-0.675,-0.6766,-0.6827,-0.683,-0.6871,-0.6949,-0.6981,-0.7007,-0.7078,-0.708,-0.7092,-0.7123,-0.7162,-0.717,-0.7177,-0.7204,-0.7213,-0.7098,-0.7098,-0.7098,0,-0.6546,-0.6614,-0.6629,-0.6677,-0.6705,-0.6708,-0.6759,-0.6787,-0.6843,-0.6863,-0.685,-0.6948,-0.6978,-0.7053,-0.707,-0.7091,-0.7106,-0.7088,-0.7167,-0.7174,-0.7181,-0.7208,-0.7218,-0.71,-0.71,-0.7099,-0.7099,0,-0.6637,-0.6684,-0.6719,-0.6772,-0.6804,-0.6854,-0.6877,-0.6907,-0.6914,-0.6934,-0.6997,-0.7032,-0.7084,-0.7102,-0.7109,-0.7178,-0.7171,-0.7162,-0.7141,-0.7192,-0.7217,-0.7227,-0.7102,-0.7101,-0.7101,-0.71,0,0,-0.6709,-0.6768,-0.6781,-0.6806,-0.6853,-0.689,-0.694,-0.6989,-0.7016,-0.7054,-0.7097,-0.7163,-0.7155,-0.7185,-0.7195,-0.7229,-0.7285,-0.7216,-0.7218,-0.723,-0.7366,-0.7374,-0.7385,-0.7285,-0.7287,-0.7289,-0.7363,0,-0.6777,-0.6865,-0.6879,-0.6957,-0.7001,-0.7003,-0.7046,-0.7081,-0.71,-0.7141,-0.7163,-0.721,-0.7195,-0.7213,-0.7246,-0.7271,-0.7313,-0.7266,-0.7328,-0.733,-0.732,-0.7398,-0.7407,-0.7475,-0.7372,-0.7374,-0.7375,0,-0.6868,-0.6908,-0.699,-0.7032,-0.7051,-0.7089,-0.7136,-0.7174,-0.7214,-0.7225,-0.7258,-0.7264,-0.7317,-0.7291,-0.7365,-0.7333,-0.7358,-0.7374,-0.7377,-0.7386,-0.7358,-0.7411,-0.7497,-0.7508,-0.7391,-0.7389,-0.7388,0,-0.6915,-0.6988,-0.7047,-0.7068,-0.7117,-0.7145,-0.7167,-0.7204,-0.7233,-0.7274,-0.7293,-0.7339,-0.7366,-0.7402,-0.7421,-0.74,-0.7494,-0.747,-0.7508,-0.7507,-0.753,-0.7529,-0.7623,-0.7542,-0.7541,-0.7541,-0.7541,0,-0.6991,-0.7041,-0.7069,-0.7105,-0.7162,-0.7178,-0.7234,-0.7256,-0.7288,-0.733,-0.7334,-0.7373,-0.7395,-0.7437,-0.7452,-0.7512,-0.7523,-0.7536,-0.754,-0.7537,-0.7536,-0.7556,-0.7553,-0.7544,-0.7543,-0.7543,-0.7542,0,-0.7054,-0.7074,-0.7138,-0.7179,-0.7191,-0.7231,-0.7267,-0.7303,-0.7321,-0.7374,-0.7387,-0.7416,-0.7467,-0.7488,-0.755,-0.756,-0.763,-0.7629,-0.7617,-0.7619,-0.7656,-0.7653,-0.777,-0.7787,-0.7691,-0.7692,-0.7692,0,-0.7102,-0.7141,-0.7186,-0.7214,-0.7236,-0.7281,-0.731,-0.7326,-0.7357,-0.7404,-0.7434,-0.7484,-0.7525,-0.7605,-0.7633,-0.768,-0.7682,-0.772,-0.769,-0.7686,-0.7686,-0.7685,-0.769,-0.7726,-0.7727,-0.7728,-0.7729,0,-0.7187,-0.7195,-0.7236,-0.7282,-0.7316,-0.7353,-0.7388,-0.7411,-0.7433,-0.7467,-0.7518,-0.7549,-0.7612,-0.7662,-0.7711,-0.7735,-0.7737,-0.7737,-0.7749,-0.7748,-0.7741,-0.7748,-0.7634,-0.7736,-0.7735,-0.7734,-0.7734,-0.7734,-0.7246,-0.7281,-0.7318,-0.7365,-0.7393,-0.7426,-0.7462,-0.7484,-0.7526,-0.7578,-0.7585,-0.764,-0.7678,-0.7744,-0.7769,-0.7813,-0.7804,-0.782,-0.7825,-0.7829,-0.7833,-0.7731,-0.7821,-0.7821,-0.7821,-0.7821,-0.7821,0,-0.7334,-0.7357,-0.7399,-0.7449,-0.7485,-0.7481,-0.752,-0.7551,-0.7599,-0.7634,-0.7674,-0.7732,-0.7781,-0.7811,-0.786,-0.7889,-0.7892,-0.7902,-0.7902,-0.7908,-0.7837,-0.7823,-0.79,-0.79,-0.79,-0.79,-0.79,-0.79,-0.7384,-0.7443,-0.7455,-0.7529,-0.7552,-0.7605,-0.7628,-0.7659,-0.7687,-0.7752,-0.7792,-0.781,-0.7844,-0.7895,-0.794,-0.7948,-0.7967,-0.7978,-0.7986,-0.792,-0.7912,-0.7905,-0.7892,-0.7982,-0.7982,-0.8053,-0.8054,-0.8054]},{"header":{"parameterUnit":"m.s-1","parameterCategory":1,"la1":30.2991,"la2":30.254,"lo1":-89.0895,"lo2":-89.0444,"dy":0.0017,"dx":0.0017,"nx":28,"ny":28,"refTime":"2025-02-24T03:00:00:Z","depth":0,"parameterNumber":3,"parameterNumberName":"V-component_of_WINDS"},"data":[0,0,0,0,0,0,0,0,0,0,0,0,0,0,0,0,0,0,0,0,0,0,0,0,0,0,0,0,0,0,0,0,0,0,0,0,0,0,0,0,0,0,0,0,0,0,0,0,0,0,0,0,0,0,0,0,0,0,-5.0829,-5.0829,0,-5.0847,-5.0847,-5.0847,-5.0776,-5.0774,-5.0772,-5.077,-5.0785,-5.0787,-5.079,0,0,0,0,0,0,0,0,0,0,0,0,0,-5.0732,-5.0734,-5.0829,-5.0829,-5.083,-5.0847,-5.0847,-5.0847,-5.0777,-5.0774,-5.0772,-5.0769,-5.0784,-5.0787,-5.079,0,0,0,0,0,0,0,0,0,0,0,0,0,-5.0764,-5.0735,-5.0829,-5.0797,-5.0794,-5.0847,-5.0847,-5.0847,-5.0777,-5.0774,-5.0771,-5.0768,-5.0783,-5.0787,-5.079,-5.0874,0,0,-5.0801,-5.0802,0,0,0,0,0,0,0,0,-5.0762,-5.0768,-5.0801,-5.0799,-5.0796,-5.0806,-5.0818,-5.0856,-5.0778,-5.0783,-5.077,-5.0766,-5.0794,-5.0797,-5.0807,-5.0875,-5.0875,-5.0801,-5.0803,-5.0805,-5.0806,0,0,0,0,0,0,0,-5.076,-5.0767,-5.0836,-5.0802,-5.0799,-5.078,-5.0781,-5.0825,-5.0806,-5.0783,-5.0778,-5.0781,-5.0792,-5.0804,-5.0807,-5.0876,-5.0801,-5.0804,-5.0806,-5.0808,-5.1013,-5.1016,0,0,0,0,0,0,-5.0763,-5.0765,-5.0835,-5.0836,-5.0771,-5.0784,-5.0786,-5.0806,-5.0805,-5.0802,-5.0783,-5.0777,-5.0799,-5.0803,-5.0807,-5.0905,-5.0805,-5.0808,-5.081,-5.1009,-5.1013,-5.1017,0,0,0,0,0,0,-5.0761,-5.077,-5.0835,-5.08,-5.0806,-5.0789,-5.0813,-5.0808,-5.0819,-5.0806,-5.0802,-5.0799,-5.0797,-5.0802,-5.0858,-5.0904,-5.081,-5.0813,-5.1005,-5.1011,-5.1015,-5.1101,0,0,0,0,0,0,-5.0759,-5.077,-5.0802,-5.0801,-5.0809,-5.0887,-5.0816,-5.0811,-5.0826,-5.0818,-5.0819,-5.0816,-5.0795,-5.0853,-5.0861,-5.0907,-5.0815,-5.1001,-5.1008,-5.1014,-5.1094,-5.1109,-5.1121,0,0,0,0,0,-5.0755,-5.0825,-5.0804,-5.0813,-5.0849,-5.089,-5.0894,-5.0868,-5.083,-5.0862,-5.0853,-5.0816,-5.0898,-5.0859,-5.0868,-5.0916,-5.0998,-5.1006,-5.1013,-5.1088,-5.1106,-5.1121,0,0,0,0,0,0,-5.0831,-5.0824,-5.0801,-5.0872,-5.0882,-5.0878,-5.0917,-5.0888,-5.0908,-5.09,-5.0867,-5.0867,-5.0929,-5.0928,-5.0885,-5.0997,-5.0941,-5.0951,-5.0995,-5.1012,-5.1025,-5.1024,-5.0818,0,0,0,0,0,-5.0856,-5.0891,-5.0882,-5.0946,-5.0953,-5.0934,-5.0951,-5.0931,-5.0939,-5.0942,-5.0938,-5.0947,-5.0974,-5.0993,-5.1017,-5.1094,-5.1093,-5.1131,-5.1144,-5.1155,-5.1164,-5.1204,-5.122,-5.1042,-5.1042,-5.1041,0,0,-5.0908,-5.0909,-5.0932,-5.0962,-5.0967,-5.1002,-5.0938,-5.0978,-5.1004,-5.0948,-5.1001,-5.0998,-5.1006,-5.1072,-5.1101,-5.1073,-5.1213,-5.1165,-5.1174,-5.1176,-5.1213,-5.123,-5.1245,-5.1047,-5.1046,-5.1045,0,0,-5.1021,-5.1025,-5.1079,-5.1085,-5.1094,-5.1082,-5.1095,-5.1095,-5.1091,-5.1144,-5.1103,-5.1132,-5.118,-5.1187,-5.1197,-5.1313,-5.128,-5.1322,-5.1392,-5.1431,-5.1445,-5.1457,-5.1498,-5.1513,-5.1331,-5.1331,-5.1331,0,-5.1084,-5.1137,-5.111,-5.1153,-5.1167,-5.1119,-5.1172,-5.118,-5.1196,-5.1206,-5.1175,-5.1234,-5.1236,-5.1303,-5.1332,-5.1342,-5.1355,-5.1322,-5.1445,-5.1458,-5.1469,-5.1507,-5.1523,-5.1336,-5.1335,-5.1335,-5.1334,0,-5.1214,-5.1251,-5.1293,-5.1311,-5.133,-5.1378,-5.1357,-5.1379,-5.1357,-5.1348,-5.1402,-5.1402,-5.1426,-5.144,-5.1419,-5.1505,-5.1487,-5.1451,-5.1395,-5.1491,-5.1527,-5.1541,-5.1343,-5.1341,-5.134,-5.1339,0,0,-5.1374,-5.1377,-5.1393,-5.14,-5.1407,-5.1435,-5.1481,-5.1505,-5.1524,-5.1537,-5.1574,-5.1616,-5.1583,-5.1594,-5.1573,-5.1608,-5.1699,-5.1567,-5.1567,-5.1592,-5.1793,-5.182,-5.1838,-5.1677,-5.168,-5.1682,-5.1793,0,-5.1484,-5.1564,-5.1541,-5.162,-5.1654,-5.1609,-5.1648,-5.1656,-5.1649,-5.1676,-5.1666,-5.1697,-5.1651,-5.1658,-5.169,-5.1681,-5.1739,-5.1673,-5.1711,-5.1712,-5.171,-5.1857,-5.1885,-5.1989,-5.1806,-5.1809,-5.181,0,-5.1624,-5.1643,-5.1727,-5.1728,-5.1741,-5.1777,-5.1797,-5.1824,-5.1832,-5.1823,-5.1837,-5.1809,-5.1852,-5.1796,-5.1856,-5.1812,-5.1826,-5.1824,-5.1827,-5.1829,-5.1767,-5.1862,-5.2022,-5.2037,-5.1832,-5.1831,-5.1829,0,-5.1732,-5.1779,-5.1835,-5.1843,-5.1845,-5.1872,-5.1874,-5.1879,-5.1895,-5.1912,-5.1922,-5.1944,-5.1956,-5.1974,-5.1952,-5.1913,-5.2015,-5.1957,-5.2009,-5.201,-5.2032,-5.2031,-5.2196,-5.2042,-5.2042,-5.2041,-5.2041,0,-5.1858,-5.191,-5.1884,-5.1918,-5.1975,-5.1948,-5.2004,-5.2001,-5.2006,-5.2038,-5.2,-5.2031,-5.2001,-5.2029,-5.2012,-5.2064,-5.2069,-5.2064,-5.2058,-5.2067,-5.2068,-5.2075,-5.2067,-5.2046,-5.2045,-5.2044,-5.2043,0,-5.1988,-5.1973,-5.203,-5.2028,-5.2029,-5.2071,-5.2069,-5.21,-5.209,-5.2131,-5.2139,-5.2123,-5.2154,-5.2134,-5.2165,-5.2154,-5.2221,-5.2206,-5.2219,-5.2215,-5.2268,-5.2263,-5.2443,-5.2465,-5.2298,-5.2299,-5.2301,0,-5.2069,-5.2109,-5.2111,-5.2131,-5.2136,-5.2167,-5.2184,-5.2158,-5.2177,-5.2189,-5.2218,-5.2246,-5.2266,-5.2318,-5.2308,-5.2331,-5.2316,-5.2378,-5.2319,-5.2327,-5.2317,-5.2315,-5.2318,-5.2389,-5.2391,-5.2393,-5.2394,0,-5.2215,-5.2205,-5.2231,-5.2254,-5.2275,-5.2292,-5.2305,-5.2323,-5.2297,-5.232,-5.2352,-5.2368,-5.24,-5.2428,-5.2447,-5.2448,-5.2417,-5.2413,-5.2426,-5.2435,-5.244,-5.2438,-5.2251,-5.2409,-5.2407,-5.2406,-5.2405,-5.2405,-5.2322,-5.2355,-5.2363,-5.2392,-5.24,-5.2414,-5.2443,-5.2437,-5.2463,-5.2488,-5.2471,-5.2508,-5.2514,-5.2537,-5.2542,-5.2571,-5.2545,-5.2565,-5.2569,-5.2574,-5.2582,-5.2437,-5.2574,-5.2574,-5.2573,-5.2573,-5.2573,0,-5.2465,-5.2468,-5.2496,-5.2517,-5.254,-5.251,-5.2523,-5.2544,-5.2578,-5.2587,-5.2609,-5.2645,-5.2671,-5.2664,-5.2688,-5.2712,-5.2699,-5.2719,-5.2717,-5.2718,-5.2603,-5.2589,-5.273,-5.273,-5.273,-5.273,-5.273,-5.273,-5.2542,-5.2597,-5.2588,-5.2645,-5.2647,-5.2684,-5.2694,-5.2706,-5.2713,-5.2756,-5.2778,-5.2774,-5.2776,-5.28,-5.2823,-5.282,-5.283,-5.2856,-5.2848,-5.2741,-5.2726,-5.2711,-5.2698,-5.2859,-5.2859,-5.2961,-5.2962,-5.2962]}]]